Date,TemperatureHighF,TemperatureAvgF,TemperatureLowF,DewpointHighF,DewpointAvgF,DewpointLowF,HumidityHigh,HumidityAvg,HumidityLow,PressureMaxIn,PressureMinIn,WindSpeedMaxMPH,WindSpeedAvgMPH,GustSpeedMaxMPH,PrecipitationSumIn
2013-8-1,86.8,73.0,-90.0,69.0,54.1,-99.9,95,69,43,29.59,29.47,2,0,6,0.00
2013-8-2,82.2,72.1,-90.0,72.1,62.8,-99.9,93,80,67,29.47,29.41,6,1,12,0.17
2013-8-3,83.4,70.8,-90.0,68.2,59.8,-99.9,95,75,48,29.65,29.45,3,0,10,0.00
2013-8-4,81.0,68.9,-90.0,64.5,54.7,-99.9,93,72,48,29.69,29.58,2,0,8,0.00
2013-8-5,79.0,71.0,-21.1,71.6,59.2,-99.9,90,77,71,29.60,29.35,8,2,14,0.00
2013-8-6,85.7,73.9,68.0,74.0,62.5,-99.9,95,82,67,29.41,29.32,6,1,10,0.00
2013-8-7,84.6,74.1,-15.6,76.1,67.0,-99.9,94,87,68,29.45,29.28,4,0,9,0.19
2013-8-8,81.2,69.0,-90.0,71.4,58.0,-99.9,93,83,71,29.50,29.43,2,0,7,0.00
2013-8-9,80.9,69.9,-90.0,70.1,58.8,-99.9,94,80,64,29.59,29.47,1,0,5,0.00
2013-8-10,83.5,68.6,-90.0,65.4,50.6,-99.9,90,65,43,29.68,29.59,3,0,9,0.00
2013-8-11,85.7,70.4,59.9,66.3,52.7,-99.9,91,67,49,29.66,29.53,2,0,7,0.00
2013-8-12,79.5,69.4,65.1,73.2,55.9,-99.9,93,80,71,29.56,29.43,5,0,6,0.14
2013-8-13,78.5,62.9,-90.0,65.6,45.6,-99.9,94,74,53,29.66,29.49,3,0,16,0.01
2013-8-14,76.3,61.9,34.4,55.5,41.7,-99.9,94,67,42,29.73,29.64,2,0,8,0.00
2013-8-15,73.8,60.7,-90.0,58.4,39.5,-99.9,93,68,51,29.68,29.59,2,0,8,0.00
2013-8-16,78.1,65.1,-90.0,60.6,48.4,-99.9,91,70,48,29.68,29.62,3,0,11,0.00
2013-8-17,81.0,65.6,-90.0,62.6,48.8,-99.9,95,69,45,29.71,29.63,2,0,9,0.00
2013-8-18,83.7,67.7,-90.0,65.6,54.8,-99.9,94,72,50,29.70,29.59,2,0,8,0.00
2013-8-19,86.4,70.7,-90.0,68.1,51.8,-99.9,93,68,47,29.64,29.52,3,0,11,0.00
2013-8-20,89.4,75.7,-90.0,69.1,55.8,-99.9,88,65,41,29.61,29.51,3,0,11,0.00
2013-8-21,90.4,76.5,68.6,69.2,60.3,-99.9,86,67,46,29.61,29.51,5,1,15,0.00
2013-8-22,89.5,74.0,-90.0,75.7,59.3,-99.9,88,73,57,29.60,29.51,2,0,9,0.00
2013-8-23,89.7,75.4,-90.0,74.6,63.8,-99.9,93,75,56,29.62,29.54,2,0,8,0.00
2013-8-24,90.0,76.7,-90.0,73.4,61.1,-99.9,93,71,54,29.70,29.59,4,1,10,0.00
2013-8-25,92.0,77.1,-21.7,70.1,56.4,-99.9,83,61,37,29.75,29.65,6,1,12,0.00
2013-8-26,94.5,78.4,70.6,74.2,57.9,-99.9,88,64,41,29.68,29.52,5,1,11,0.00
2013-8-27,95.3,79.2,-90.0,71.2,57.1,-99.9,89,60,35,29.57,29.45,6,2,17,0.00
2013-8-28,95.8,83.0,73.1,71.0,57.3,-99.9,76,55,39,29.52,29.46,4,1,13,0.00
2013-8-29,96.6,84.1,73.7,75.1,64.0,-99.9,81,60,41,29.54,29.44,2,0,9,0.00
2013-8-30,99.7,82.3,-90.0,74.7,57.5,-99.9,87,59,37,29.45,29.30,6,1,16,0.00
2013-8-31,97.6,83.8,-82.0,76.6,63.1,-99.9,85,63,47,29.32,29.24,5,1,11,0.00